Location: Unspecified
(0.0000°N, 0.0000°E)
Time: 03:31:49
(UTC+00:00)

ZACube-1 - Visible Passes

Search period start: 17 January 2018 00:00
Search period end: 27 January 2018 00:00
Orbit: 586 x 667 km, 97.6° (Epoch: 15 January)

Date Brightness Start Highest point End Pass type
(mag) Time Alt. Az. Time Alt. Az. Time Alt. Az.
17 Jan ? 20:06:18 10° S 20:10:18 42° W 20:12:08 27° NW visible
18 Jan ? 18:51:15 10° ESE 18:53:34 14° ENE 18:54:31 14° ENE visible
18 Jan ? 20:26:14 10° SSW 20:29:33 22° W 20:31:49 15° WNW visible
19 Jan ? 19:09:10 10° SE 19:12:47 27° ENE 19:14:13 22° NE visible
19 Jan ? 20:47:12 10° WSW 20:48:48 12° WSW 20:50:26 10° W visible
20 Jan ? 19:27:51 10° SSE 19:32:01 51° ENE 19:33:56 29° NNE visible
21 Jan ? 19:46:58 10° S 19:51:16 81° W 19:53:40 26° NNW visible
22 Jan ? 20:06:28 10° S 20:10:30 41° WSW 20:13:25 18° NW visible
23 Jan ? 18:51:16 10° ESE 18:53:46 15° ENE 18:55:52 11° NE visible
23 Jan ? 20:26:25 10° SSW 20:29:46 22° W 20:33:10 10° NW visible
24 Jan ? 19:09:16 10° SE 19:13:00 28° ENE 19:15:41 16° NNE visible
24 Jan ? 20:47:25 10° WSW 20:49:00 12° WSW 20:50:37 10° W visible
25 Jan ? 19:27:59 10° SSE 19:32:13 53° ENE 19:35:30 17° N visible
26 Jan ? 19:47:07 10° S 19:51:28 79° WSW 19:55:24 13° NNW visible
